HULIANWANG DIGUI-24

导读

HULIANWANG DIGUI-24(互联网“低轨卫星”-24)是中国于2025年4月28日成功发射的低轨互联网卫星,作为中国低轨卫星互联网星座组网建设过程中的一员,该卫星旨在补充完善低轨卫星通信网络布局,能够助力提升全球网络覆盖能力,为偏远地区、海上以及空中场景提供稳定的互联网接入服务,推动中国天地一体化信息网络建设进程。

Basic Information
目录编号:
63691
目录名称:
HULIANWANG DIGUI-24
国际标识:
2025-086E
轨道中心:
EARTH
卫星名称:
HULIANWANG DIGUI-24
卫星全名:
HULIANWANG DIGUI-24
卫星状态:
在轨 (已飞行501 天)
发射日期:
2025-04-28 UTC
国别 :
中国 (CN)
星等 :
--
Orbit Information
数据来源 国际轨道数据 AOE轨道数据
星历时间 2026-09-11T07:03:38+0800
5小时前
查看轨道信息
2026-09-10T22:00:00+0800
14小时前
查看轨道信息
半长轴 7546.045km 7546.043km
偏心率 0.0002118 0.0001886
轨道倾角 86.504° 86.500°
近地点辐角 82.610° 106.577°
升交点赤经 284.412° 284.537°
平近点角 277.527° 254.614°
近地点 1166.309km 1166.482km
远地点 1169.507km 1169.33km
周期 108.727分钟 108.727分钟
每日圈数 13.244138 13.244143
Detailed Information
使用方式:
暂无
2D Orbit Map
3D Orbit Map
Orbit Altitude Analysis Chart
Orbit Inclination Analysis Chart
Orbit Comprehensive Analysis Chart
View Comprehensive Chart
Conjunction Data List
Event ID Objects TCA Miss Dist (km) Collision Risk Probability Collision Risk Index (CRI) Action
CDM_260910-190304-532406-369128
2026-09-10T
19:03:39+0000
1.362 km
极远距离
8.76739E-6 低风险 0.54
CDM_260913-051603-006006-369121
2026-09-13T
05:16:22+0000
2.396 km
极远距离
1.874457E-6 低风险 0.4
Miss Distance Evolution Trend with All Objects
Collision Probability Evolution Trend with All Objects